| time (UTC) | temp F | wind direction | speed MPH | gust MPH | rain 1hr in | rain 24hr in | rain mn in | humidity % | barometer mb |
| 20260906141527 | 36 | 247 | 0.0 | 0.0 | 0.00 | 0.02 | 0.00 | 96 | 1017.0 |
| 20260906140036 | 36 | 247 | 0.0 | 0.0 | 0.00 | 0.02 | 0.00 | 96 | 1016.9 |
| 20260906134526 | 36 | 247 | 0.0 | 0.0 | 0.00 | 0.02 | 0.00 | 96 | 1017.0 |
| 20260906133024 | 36 | 247 | 0.0 | 0.0 | 0.00 | 0.02 | 0.00 | 96 | 1017.2 |
| 20260906131523 | 36 | 247 | 0.0 | 0.0 | 0.00 | 0.02 | 0.00 | 96 | 1017.0 |
| 20260906130025 | 36 | 247 | 0.0 | 0.0 | 0.00 | 0.02 | 0.00 | 96 | 1017.1 |
| 20260906124518 | 37 | 247 | 0.0 | 0.0 | 0.00 | 0.02 | 0.00 | 96 | 1017.3 |
| 20260906123029 | 37 | 247 | 0.0 | 0.0 | 0.00 | 0.02 | 0.00 | 96 | 1017.4 |
| 20260906121530 | 37 | 247 | 0.0 | 0.0 | 0.00 | 0.02 | 0.00 | 96 | 1017.4 |
| 20260906120015 | 38 | 247 | 0.0 | 0.0 | 0.00 | 0.02 | 0.00 | 96 | 1017.4 |
| 20260906114517 | 38 | 247 | 0.0 | 0.0 | 0.00 | 0.02 | 0.00 | 96 | 1017.4 |
| 20260906113035 | 38 | 247 | 0.0 | 0.0 | 0.00 | 0.02 | 0.00 | 96 | 1017.4 |
| 20260906111513 | 38 | 247 | 0.0 | 0.0 | 0.00 | 0.02 | 0.00 | 96 | 1017.5 |
| 20260906110010 | 39 | 247 | 0.0 | 0.0 | 0.00 | 0.02 | 0.00 | 96 | 1017.5 |
| 20260906104511 | 39 | 247 | 0.0 | 0.0 | 0.00 | 0.02 | 0.00 | 96 | 1017.6 |
| 20260906103007 | 39 | 247 | 0.0 | 0.0 | 0.00 | 0.02 | 0.00 | 95 | 1017.6 |
| 20260906101506 | 40 | 247 | 0.0 | 0.0 | 0.00 | 0.02 | 0.00 | 96 | 1017.7 |
| 20260906100011 | 40 | 247 | 0.0 | 0.0 | 0.00 | 0.02 | 0.00 | 96 | 1017.6 |
| 20260906094505 | 40 | 247 | 0.0 | 0.0 | 0.00 | 0.02 | 0.00 | 96 | 1017.5 |
| 20260906093002 | 40 | 247 | 0.0 | 0.0 | 0.00 | 0.02 | 0.00 | 95 | 1017.5 |
| 20260906091601 | 41 | 247 | 0.0 | 0.0 | 0.00 | 0.02 | 0.00 | 96 | 1017.5 |
| 20260906090107 | 41 | 247 | 0.0 | 0.0 | 0.00 | 0.02 | 0.00 | 96 | 1017.5 |
| 20260906084558 | 41 | 247 | 0.0 | 0.0 | 0.00 | 0.02 | 0.00 | 95 | 1017.5 |
| 20260906083057 | 42 | 247 | 0.0 | 0.0 | 0.00 | 0.02 | 0.00 | 95 | 1017.5 |
| 20260906081558 | 42 | 247 | 0.0 | 0.0 | 0.00 | 0.02 | 0.00 | 95 | 1017.5 |
| 20260906080053 | 43 | 247 | 0.0 | 0.0 | 0.00 | 0.02 | 0.00 | 95 | 1017.6 |
| 20260906074608 | 43 | 247 | 0.0 | 0.0 | 0.00 | 0.02 | 0.00 | 95 | 1017.6 |
| 20260906073049 | 44 | 247 | 0.0 | 0.0 | 0.00 | 0.02 | 0.00 | 95 | 1017.7 |
| 20260906071546 | 44 | 247 | 0.0 | 0.0 | 0.00 | 0.02 | 0.00 | 95 | 1017.7 |
| 20260906070046 | 45 | 247 | 0.0 | 0.0 | 0.00 | 0.02 | 0.00 | 95 | 1017.8 |
| 20260906064545 | 45 | 247 | 0.0 | 0.0 | 0.00 | 0.02 | 0.02 | 95 | 1017.8 |
| 20260906063045 | 46 | 247 | 0.0 | 0.0 | 0.00 | 0.02 | 0.02 | 96 | 1017.8 |
| 20260906061544 | 46 | 247 | 0.0 | 0.0 | 0.00 | 0.02 | 0.02 | 95 | 1017.6 |
| 20260906060044 | 46 | 247 | 0.0 | 0.0 | 0.00 | 0.02 | 0.02 | 95 | 1017.7 |
| 20260906054543 | 47 | 247 | 0.0 | 0.0 | 0.00 | 0.02 | 0.02 | 95 | 1017.6 |
| 20260906053042 | 47 | 247 | 0.0 | 0.0 | 0.00 | 0.02 | 0.02 | 95 | 1017.5 |
| 20260906051549 | 48 | 247 | 0.0 | 0.0 | 0.00 | 0.02 | 0.02 | 95 | 1017.6 |
| 20260906050047 | 49 | 247 | 0.0 | 0.0 | 0.00 | 0.02 | 0.02 | 95 | 1017.7 |
| 20260906044541 | 49 | 247 | 0.0 | 0.0 | 0.00 | 0.02 | 0.02 | 95 | 1017.5 |
| 20260906043041 | 50 | 247 | 0.0 | 0.0 | 0.00 | 0.02 | 0.02 | 96 | 1017.5 |
| 20260906041543 | 50 | 247 | 0.0 | 2.0 | 0.00 | 0.02 | 0.02 | 96 | 1017.4 |
| 20260906040044 | 50 | 247 | 0.0 | 0.0 | 0.00 | 0.02 | 0.02 | 96 | 1017.4 |
| 20260906034540 | 50 | 247 | 0.0 | 0.0 | 0.00 | 0.02 | 0.02 | 94 | 1017.3 |
| 20260906033045 | 51 | 247 | 0.0 | 0.0 | 0.00 | 0.02 | 0.02 | 94 | 1017.2 |
| 20260906031551 | 52 | 247 | 0.0 | 0.0 | 0.00 | 0.02 | 0.02 | 94 | 1016.9 |
| 20260906030039 | 52 | 247 | 0.0 | 0.0 | 0.00 | 0.02 | 0.02 | 94 | 1016.9 |
| 20260906024538 | 53 | 247 | 0.0 | 0.0 | 0.00 | 0.02 | 0.02 | 94 | 1016.8 |
| 20260906023038 | 53 | 247 | 0.0 | 0.0 | 0.00 | 0.02 | 0.02 | 94 | 1016.9 |
| 20260906021537 | 54 | 247 | 0.0 | 0.0 | 0.00 | 0.02 | 0.02 | 94 | 1016.6 |
| 20260906020037 | 54 | 247 | 0.0 | 0.0 | 0.00 | 0.02 | 0.02 | 93 | 1016.5 |
| 20260906014537 | 54 | 247 | 0.0 | 0.0 | 0.00 | 0.02 | 0.02 | 93 | 1016.4 |
| 20260906013036 | 55 | 247 | 0.0 | 0.0 | 0.00 | 0.02 | 0.02 | 94 | 1016.3 |
| 20260906011540 | 55 | 247 | 0.0 | 0.0 | 0.00 | 0.02 | 0.02 | 94 | 1016.3 |
| 20260906010037 | 55 | 247 | 0.0 | 0.0 | 0.01 | 0.02 | 0.02 | 93 | 1016.3 |
| 20260906004534 | 55 | 247 | 0.0 | 0.0 | 0.01 | 0.02 | 0.02 | 92 | 1016.1 |
| 20260906003034 | 55 | 247 | 0.0 | 0.0 | 0.01 | 0.02 | 0.02 | 92 | 1016.0 |
| 20260906001533 | 56 | 247 | 0.0 | 0.0 | 0.01 | 0.02 | 0.02 | 92 | 1016.3 |
| 20260906000033 | 56 | 247 | 0.0 | 0.0 | 0.00 | 0.01 | 0.01 | 89 | 1016.6 |
| 20260905234533 | 56 | 247 | 0.0 | 0.0 | 0.01 | 0.01 | 0.01 | 88 | 1016.5 |
| 20260905233035 | 58 | 247 | 0.0 | 0.0 | 0.01 | 0.01 | 0.01 | 85 | 1016.4 |
| 20260905231532 | 60 | 247 | 0.0 | 0.0 | 0.01 | 0.01 | 0.01 | 81 | 1016.2 |
| 20260905230033 | 64 | 247 | 0.0 | 0.0 | 0.01 | 0.01 | 0.01 | 74 | 1016.0 |
| 20260905224542 | 66 | 247 | 0.0 | 2.0 | 0.00 | 0.00 | 0.00 | 55 | 1015.9 |
| 20260905223026 | 65 | 218 | 0.0 | 3.0 | 0.00 | 0.00 | 0.00 | 52 | 1016.0 |
| 20260905221522 | 64 | 10 | 0.0 | 2.0 | 0.00 | 0.00 | 0.00 | 55 | 1016.2 |
| 20260905220020 | 63 | 227 | 0.0 | 0.0 | 0.00 | 0.00 | 0.00 | 65 | 1016.5 |
| 20260905214519 | 62 | 227 | 0.0 | 0.0 | 0.00 | 0.00 | 0.00 | 68 | 1016.7 |
| 20260905213018 | 62 | 227 | 0.0 | 0.0 | 0.00 | 0.00 | 0.00 | 73 | 1016.7 |
| 20260905211517 | 62 | 227 | 0.0 | 0.0 | 0.00 | 0.00 | 0.00 | 64 | 1016.9 |
| 20260905210016 | 62 | 227 | 0.0 | 2.0 | 0.00 | 0.00 | 0.00 | 60 | 1017.0 |
| 20260905204519 | 61 | 360 | 0.0 | 0.0 | 0.00 | 0.00 | 0.00 | 66 | 1017.1 |
| 20260905203015 | 62 | 360 | 0.0 | 0.0 | 0.00 | 0.00 | 0.00 | 67 | 1017.0 |
| 20260905201513 | 61 | 360 | 0.0 | 0.0 | 0.00 | 0.00 | 0.00 | 67 | 1017.1 |
| 20260905200012 | 61 | 5 | 0.0 | 0.0 | 0.00 | 0.00 | 0.00 | 71 | 1017.2 |
| 20260905194509 | 60 | 5 | 0.0 | 0.0 | 0.00 | 0.03 | 0.00 | 72 | 1017.3 |
| 20260905193009 | 59 | 5 | 0.0 | 0.0 | 0.00 | 0.03 | 0.00 | 67 | 1017.4 |
| 20260905191503 | 58 | 5 | 0.0 | 0.0 | 0.00 | 0.03 | 0.00 | 70 | 1017.6 |
| 20260905190001 | 58 | 5 | 0.0 | 1.0 | 0.00 | 0.03 | 0.00 | 73 | 1017.7 |
| 20260905184601 | 56 | 5 | 0.0 | 1.0 | 0.00 | 0.03 | 0.00 | 74 | 1017.9 |
| 20260905183057 | 54 | 5 | 0.0 | 0.0 | 0.00 | 0.03 | 0.00 | 79 | 1018.0 |
| 20260905181603 | 53 | 5 | 0.0 | 0.0 | 0.00 | 0.03 | 0.00 | 82 | 1018.3 |
| 20260905180044 | 51 | 5 | 0.0 | 0.0 | 0.00 | 0.03 | 0.00 | 87 | 1018.3 |
| 20260905174549 | 50 | 5 | 0.0 | 0.0 | 0.00 | 0.03 | 0.00 | 92 | 1018.4 |
| 20260905173038 | 49 | 5 | 0.0 | 0.0 | 0.00 | 0.03 | 0.00 | 94 | 1018.4 |
| 20260905171542 | 48 | 5 | 0.0 | 0.0 | 0.00 | 0.03 | 0.00 | 95 | 1018.6 |
| 20260905170034 | 48 | 5 | 0.0 | 0.0 | 0.00 | 0.03 | 0.00 | 97 | 1018.6 |
| 20260905164535 | 47 | 5 | 0.0 | 0.0 | 0.00 | 0.03 | 0.00 | 98 | 1018.7 |
| 20260905163028 | 46 | 5 | 0.0 | 0.0 | 0.00 | 0.03 | 0.00 | 98 | 1018.6 |
| 20260905161526 | 45 | 5 | 0.0 | 0.0 | 0.00 | 0.03 | 0.00 | 98 | 1018.7 |
| 20260905160031 | 43 | 5 | 0.0 | 0.0 | 0.00 | 0.03 | 0.00 | 98 | 1018.7 |
| 20260905154519 | 41 | 5 | 0.0 | 0.0 | 0.00 | 0.03 | 0.00 | 98 | 1018.6 |
| 20260905153022 | 39 | 5 | 0.0 | 0.0 | 0.00 | 0.03 | 0.00 | 98 | 1018.8 |
| 20260905151518 | 38 | 5 | 0.0 | 0.0 | 0.00 | 0.03 | 0.00 | 98 | 1018.9 |
| 20260905150017 | 36 | 5 | 0.0 | 0.0 | 0.00 | 0.03 | 0.00 | 97 | 1018.9 |
| 20260905144516 | 35 | 5 | 0.0 | 0.0 | 0.00 | 0.04 | 0.00 | 97 | 1018.8 |
| 20260905143014 | 35 | 5 | 0.0 | 0.0 | 0.00 | 0.04 | 0.00 | 96 | 1018.7 |